COSMOS 2251 DEB, 35018

Orbit data source: Space-Track

COSMOS 2251 DEB, 35018 is space debris in LEO originally from a launch on Wed, 16 Jun 1993 UTC launched from the Plesetsk Missile And Space Complex (PKMTR). The debris from Iridium 33, an American commercial communications satellite, has been tracked extensively since its accidental collision with the defunct Russian satellite Cosmos 2251 in 2009. This event, occurring at high speed in low Earth orbit (LEO), generated thousands of pieces of space debris, significantly increasing the risk of further collisions. The Iridium 33 debris cloud has impacted space traffic management and orbital debris mitigation strategies, making it a subject of ongoing study in space situational awareness.

Loading next visibility...
Identifier
35018, 1993-036AGF
Orbit
LEO
Country
Flag of CISCIS
Related business
Manufacturer
Unknown
Mission
Spacecraft
Bus & Motor
Unknown
Mass
Unknown
Launch date (UTC)
1993-06-16 (33 years ago)
Launch vehicle
Unknown
Launch site
Plesetsk Missile And Space Complex (PKMTR)
Object type
Payload
Rocket body
Debris
Shape & HBR
Unknown shape, 0.1 m
Radar Cross Section
Small (<0.1 m²)

Expand to show TLE details & history
Last TLE update: 4 days ago

TLE from 4 days ago
0 COSMOS 2251 DEB
1 35018U 93036AGF 26119.58550351  .00001691  00000-0  13358-2 0  9998
2 35018  73.9765 242.8659 0346832 124.0759 239.3794 13.67557125850705
Epoch: 2026-04-29T14:03Z
TLE epoch observation values (Epoch: 2026-04-29T14:03:07.503Z)
Latitude
0.00001°
Longitude
174.54029°
Altitude
1,147.804 km
Speed
7.212 km/s
True Right ascension
16h 11m 27s
True Declination
0° 00' 00"
Sunlit
Object was in full shadow at epoch
Visualization orbit readout
Latitude
Unknown
Longitude
Unknown
Altitude
Unknown
Speed
Unknown
Apparent Right ascension
Unknown
Apparent Declination
Unknown
Sunlit
N/A
Visualization observer readout
Local Sidereal Time
08:33:50
Azimuth
Unknown
Elevation
Unknown
Doppler factor
Unknown
Orbital elements
Apogee altitude
1,262.163 km
Perigee altitude
749.948 km
Semi-major axis
7,384.192 km
Eccentricity
0.03468
Inclination
73.9765°
RAAN
242.8659°
Arg. of periapsis
124.0759°
True anomaly
236.03504°
Mean anomaly
239.3794°
Eccentric anomaly
237.6997°
Mean motion
3.42049 °/min
Orbital period
105.25 mins
BSTAR
0.0013358
Loading maneuver chart data...
Computing Atmospheric mass density...
Loading historical data...
Loading historical data...
Loading historical data...
Loading historical data...
Loading historical data...
Loading historical data...
Loading historical data...

Documentation

Showing up to 5 results
|